Weather History for Kelso-Longview, WA

Change the Weather History Date:

Monday, August 19, 2013

  Actual Average Record
Temperature  
Mean Temperature 66 °F -  
Max Temperature 77 °F 74 °F 87 °F (2006)
Min Temperature 55 °F 53 °F 44 °F (1996)
Cooling Degree Days 1    
Growing Degree Days 16 (Base 50)    
Moisture  
Dew Point 55 °F    
Average Humidity 70    
Maximum Humidity 88    
Minimum Humidity 50    
Precipitation  
Precipitation 0.00 in - - ()
Sea Level Pressure  
Sea Level Pressure 30.14 in    
Wind  
Wind Speed 2 mph (WNW)    
Max Wind Speed 12 mph    
Max Gust Speed 18 mph    
Visibility 10 miles    
Events      
Averages and records for this station are not official NWS values.
T = Trace of Precipitation, MM = Missing Value Source: NWS Daily Summary

Daily Weather History Graph

Daily Weather History Graph

Search for Another Location

Airport:

Trip Planner

Search our weather history database for the weather conditions in past years. The results will help you decide how hot, cold, wet, or windy it might be!

Date:

Astronomy

Aug. 19, 2013 Rise Set
Actual Time 6:16 AM PDT 8:13 PM PDT
Civil Twilight 5:44 AM PDT 8:45 PM PDT
Nautical Twilight 5:04 AM PDT 9:24 PM PDT
Astronomical Twilight 4:20 AM PDT 10:07 PM PDT
Moon 7:07 PM PDT 4:40 AM PDT
Length of Visible Light 15h 01m
Length of Day
13h 56m
Waxing Gibbous, 98% of the Moon is Illuminated
Aug 19
Waxing Gibbous
Aug 20
Full
Aug 28
Last Quarter
Sep 5
New
Sep 12
First Quarter

Hourly Weather History & Observations

Time (PDT) Temp. Dew Point Humidity Pressure Visibility Wind Dir Wind Speed Gust Speed Precip Events Conditions
12:15 AM 62.6 °F 55.4 °F 77% 30.14 in 10.0 mi Calm Calm - N/A   Clear
12:35 AM 60.8 °F 55.4 °F 82% 30.14 in 10.0 mi Calm Calm - N/A   Clear
12:55 AM 60.8 °F 55.4 °F 82% 30.14 in 10.0 mi Calm Calm - N/A   Clear
1:15 AM 60.8 °F 55.4 °F 82% 30.14 in 10.0 mi Calm Calm - N/A   Partly Cloudy
1:35 AM 60.8 °F 55.4 °F 82% 30.14 in 10.0 mi Calm Calm - N/A   Partly Cloudy
1:55 AM 60.8 °F 53.6 °F 77% 30.14 in 10.0 mi Calm Calm - N/A   Partly Cloudy
2:15 AM 59.0 °F 53.6 °F 82% 30.14 in 10.0 mi Calm Calm - N/A   Clear
2:35 AM 59.0 °F 53.6 °F 82% 30.13 in 10.0 mi WNW 3.5 mph - N/A   Clear
2:55 AM 57.2 °F 53.6 °F 88% 30.13 in 10.0 mi Calm Calm - N/A   Clear
3:15 AM 57.2 °F 53.6 °F 88% 30.12 in 10.0 mi Calm Calm - N/A   Clear
3:35 AM 57.2 °F 53.6 °F 88% 30.12 in 10.0 mi Calm Calm - N/A   Clear
3:55 AM 57.2 °F 53.6 °F 88% 30.13 in 10.0 mi NNW 3.5 mph - N/A   Clear
4:15 AM 57.2 °F 51.8 °F 82% 30.12 in 10.0 mi Calm Calm - N/A   Clear
4:35 AM 55.4 °F 51.8 °F 88% 30.13 in 10.0 mi Calm Calm - N/A   Clear
4:55 AM 55.4 °F 51.8 °F 88% 30.13 in 10.0 mi Calm Calm - N/A   Clear
5:15 AM 55.4 °F 51.8 °F 88% 30.13 in 10.0 mi NW 3.5 mph - N/A   Clear
5:35 AM 55.4 °F 51.8 °F 88% 30.13 in 10.0 mi NW 3.5 mph - N/A   Clear
5:55 AM 55.4 °F 51.8 °F 88% 30.13 in 10.0 mi Calm Calm - N/A   Clear
6:15 AM 55.4 °F 50.0 °F 82% 30.14 in 10.0 mi Calm Calm - N/A   Clear
6:35 AM 55.4 °F 50.0 °F 82% 30.14 in 10.0 mi Calm Calm - N/A   Clear
6:55 AM 55.4 °F 51.8 °F 88% 30.14 in 10.0 mi Calm Calm - N/A   Clear
7:15 AM 55.4 °F 51.8 °F 88% 30.15 in 10.0 mi Calm Calm - N/A   Clear
7:35 AM 57.2 °F 51.8 °F 82% 30.15 in 10.0 mi Calm Calm - N/A   Partly Cloudy
7:55 AM 57.2 °F 51.8 °F 82% 30.15 in 10.0 mi Calm Calm - N/A   Mostly Cloudy
8:15 AM 60.8 °F 53.6 °F 77% 30.16 in 10.0 mi NNW 3.5 mph - N/A   Scattered Clouds
8:35 AM 60.8 °F 53.6 °F 77% 30.16 in 10.0 mi Calm Calm - N/A   Clear
8:55 AM 62.6 °F 53.6 °F 72% 30.16 in 10.0 mi North - - N/A   Clear
9:15 AM 62.6 °F 53.6 °F 72% 30.16 in 10.0 mi Calm Calm - N/A   Clear
9:35 AM 64.4 °F 53.6 °F 68% 30.16 in 10.0 mi North - - N/A   Clear
9:55 AM 66.2 °F 55.4 °F 68% 30.16 in 10.0 mi North - - N/A   Clear
10:15 AM 66.2 °F 55.4 °F 68% 30.16 in 10.0 mi North - - N/A   Clear
10:35 AM 68.0 °F 53.6 °F 60% 30.16 in 10.0 mi North - - N/A   Clear
10:55 AM 69.8 °F 55.4 °F 60% 30.17 in 10.0 mi West 4.6 mph - N/A   Clear
11:15 AM 71.6 °F 55.4 °F 57% 30.17 in 10.0 mi Calm Calm - N/A   Clear
11:35 AM 73.4 °F 55.4 °F 53% 30.17 in 10.0 mi Calm Calm - N/A   Clear
11:55 AM 73.4 °F 55.4 °F 53% 30.16 in 10.0 mi West 3.5 mph - N/A   Clear
12:15 PM 73.4 °F 55.4 °F 53% 30.16 in 10.0 mi Calm Calm - N/A   Clear
12:35 PM 75.2 °F 55.4 °F 50% 30.15 in 10.0 mi West 5.8 mph - N/A   Clear
12:55 PM 75.2 °F 55.4 °F 50% 30.15 in 10.0 mi WSW 4.6 mph - N/A   Mostly Cloudy
1:15 PM 75.2 °F 55.4 °F 50% 30.15 in 10.0 mi West 5.8 mph - N/A   Mostly Cloudy
1:35 PM 75.2 °F 57.2 °F 53% 30.15 in 10.0 mi WSW 11.5 mph 17.3 mph N/A   Mostly Cloudy
1:55 PM 75.2 °F 57.2 °F 53% 30.15 in 10.0 mi West 5.8 mph - N/A   Mostly Cloudy
2:15 PM 77.0 °F 57.2 °F 50% 30.15 in 10.0 mi West 9.2 mph - N/A   Partly Cloudy
2:35 PM 77.0 °F 57.2 °F 50% 30.15 in 10.0 mi West 5.8 mph - N/A   Clear
2:55 PM 77.0 °F 57.2 °F 50% 30.15 in 10.0 mi WNW 10.4 mph - N/A   Clear
3:15 PM 77.0 °F 57.2 °F 50% 30.14 in 10.0 mi West 8.1 mph 17.3 mph N/A   Clear
3:35 PM 77.0 °F 57.2 °F 50% 30.14 in 10.0 mi West 9.2 mph - N/A   Clear
3:55 PM 75.2 °F 57.2 °F 53% 30.14 in 10.0 mi West 11.5 mph 17.3 mph N/A   Clear
4:15 PM 75.2 °F 55.4 °F 50% 30.13 in 10.0 mi West 8.1 mph - N/A   Clear
4:35 PM 73.4 °F 55.4 °F 53% 30.13 in 10.0 mi West 5.8 mph - N/A   Clear
4:55 PM 73.4 °F 57.2 °F 57% 30.13 in 10.0 mi West 10.4 mph 18.4 mph N/A   Clear
5:15 PM 73.4 °F 55.4 °F 53% 30.12 in 10.0 mi WNW 10.4 mph - N/A   Clear
5:35 PM 73.4 °F 55.4 °F 53% 30.12 in 10.0 mi WNW 4.6 mph - N/A   Clear
5:55 PM 73.4 °F 55.4 °F 53% 30.12 in 10.0 mi West 9.2 mph - N/A   Clear
6:15 PM 71.6 °F 55.4 °F 57% 30.12 in 10.0 mi West 6.9 mph - N/A   Clear
6:35 PM 69.8 °F 55.4 °F 60% 30.12 in 10.0 mi West 8.1 mph - N/A   Clear
6:55 PM 69.8 °F 55.4 °F 60% 30.12 in 10.0 mi West 9.2 mph - N/A   Partly Cloudy
7:15 PM 66.2 °F 55.4 °F 68% 30.12 in 10.0 mi WNW 6.9 mph 16.1 mph N/A   Partly Cloudy
7:35 PM 66.2 °F 55.4 °F 68% 30.13 in 10.0 mi West 3.5 mph - N/A   Scattered Clouds
7:55 PM 64.4 °F 55.4 °F 73% 30.13 in 10.0 mi West 4.6 mph - N/A   Mostly Cloudy
8:15 PM 64.4 °F 55.4 °F 73% 30.14 in 10.0 mi West 3.5 mph - N/A   Overcast
8:35 PM 64.4 °F 55.4 °F 73% 30.14 in 10.0 mi WNW 3.5 mph - N/A   Mostly Cloudy
8:55 PM 64.4 °F 55.4 °F 73% 30.15 in 10.0 mi NW 3.5 mph - N/A   Overcast
9:15 PM 64.4 °F 55.4 °F 73% 30.15 in 10.0 mi WNW 3.5 mph - N/A   Overcast
9:35 PM 64.4 °F 55.4 °F 73% 30.15 in 10.0 mi NW 3.5 mph - N/A   Overcast
9:55 PM 62.6 °F 55.4 °F 77% 30.15 in 10.0 mi Calm Calm - N/A   Overcast
10:15 PM 62.6 °F 55.4 °F 77% 30.15 in 10.0 mi Calm Calm - N/A   Overcast
10:35 PM 62.6 °F 55.4 °F 77% 30.15 in 10.0 mi Calm Calm - N/A   Mostly Cloudy
10:55 PM 62.6 °F 53.6 °F 72% 30.16 in 10.0 mi Calm Calm - N/A   Scattered Clouds
11:15 PM 60.8 °F 53.6 °F 77% 30.16 in 10.0 mi NNW 4.6 mph - N/A   Partly Cloudy
11:35 PM 60.8 °F 53.6 °F 77% 30.16 in 10.0 mi North 5.8 mph - N/A   Clear
11:55 PM 60.8 °F 53.6 °F 77% 30.16 in 10.0 mi Calm Calm - N/A   Clear